Temp_Advection
nan nan nan nan nan nan nan nan nan nan nan nan nan nan nan nan nan nan nan nan nan nan nan nan nan nan nan nan nan nan nan nan nan nan nan nan nan nan nan nan nan nan nan nan nan nan nan nan nan
nan 0 0 0 0 -0 -0 0 -0 -0 -0 -0 0 0 0 0 0 0 0 1 0 -0 -0 0 0 0 0 0 0 0 -0 0 0 -0 -0 0 0 0 0 0 0 0 0 0 0 0 0 0 nan
nan 0 0 0 0 -0 0 -0 -0 0 -0 0 0 -0 0 0 0 -0 -1 1 0 -0 -0 0 0 0 0 0 0 0 -0 0 0 0 -0 -0 0 -0 -0 -0 -0 0 0 -0 0 0 0 0 nan
nan 0 0 0 0 -0 0 0 0 -0 -0 -0 -0 0 0 0 0 0 -0 1 0 0 0 0 0 0 0 0 0 0 -0 -0 -0 -0 -0 -0 -0 -0 0 -0 -0 -0 0 0 0 0 0 0 nan
nan 0 0 0 -0 -0 0 -0 -0 -0 -0 0 0 0 0 0 0 1 1 0 0 1 1 0 0 0 0 0 0 0 -0 -0 -0 -0 -0 0 -0 -0 0 0 -0 -0 0 0 0 0 0 0 nan
nan 0 0 0 0 -0 -0 -1 -0 -0 -0 0 0 0 0 0 0 1 1 1 0 -0 0 0 0 0 0 0 -0 0 0 0 0 -0 -0 0 -0 -0 0 0 0 0 -0 -0 -0 0 0 0 nan
nan 0 0 0 -0 -0 -0 -0 -0 -0 -0 -0 -0 -0 -0 0 -0 1 0 1 1 -0 -0 0 0 0 0 0 0 0 0 0 -0 -0 -0 -0 -0 -0 -0 0 1 0 0 -0 0 -0 0 0 nan
nan -0 0 -0 -0 -0 -0 0 -0 -1 -1 -0 0 -0 -0 -0 -0 -0 1 0 1 0 0 0 0 0 0 0 0 0 0 0 -0 -0 -0 -0 -0 -0 -0 0 1 0 0 0 0 -0 0 0 nan
nan 0 -0 -0 0 -0 -0 0 -0 -0 0 1 0 -0 -0 -1 0 -0 0 0 0 -0 -0 0 0 0 0 0 0 0 0 0 0 -0 -0 -0 -0 -0 -0 0 0 0 0 0 0 -0 -0 0 nan
nan -0 -0 0 -0 -0 -0 -0 -0 0 1 0 0 0 1 0 0 0 0 0 1 0 -0 -0 -0 0 0 0 0 0 0 0 0 0 -0 -0 -0 -0 -1 -0 1 0 0 -0 0 0 0 0 nan
nan -1 -0 -0 -1 -0 0 -0 0 0 -0 -1 -1 -1 0 0 0 0 0 0 0 0 0 0 -0 0 0 0 0 -0 -0 0 0 0 0 -0 -0 -0 -0 -1 0 1 0 0 0 0 0 0 nan
nan -0 -0 -0 -0 0 0 0 0 -0 -1 -0 -0 0 -0 -0 0 0 -0 1 0 1 0 0 -0 -0 -0 0 0 -0 -0 -0 0 0 0 -0 -0 -0 -0 -1 -1 0 0 0 0 0 0 0 nan
nan -0 -1 -0 -0 -0 0 0 -0 -1 -1 0 1 3 1 -0 0 0 0 0 0 0 -0 -0 0 -0 -0 -0 -0 -0 -0 -0 0 0 0 0 -0 -0 -0 -0 -1 -0 0 -0 -0 0 0 -0 nan
nan -0 -0 -0 1 0 0 -0 0 -1 -0 1 1 2 1 1 0 0 0 -0 -1 -1 -0 -0 1 0 -0 -0 -0 -0 -0 -0 -0 0 0 0 0 0 -0 -0 -0 -0 -0 -0 -0 0 0 0 nan
nan -0 -0 -0 0 -0 -0 0 -0 -1 0 1 1 0 1 1 0 0 0 -0 0 -0 0 -0 0 0 0 0 0 0 0 -0 -0 0 0 0 0 0 0 -0 -0 -0 -0 -0 0 0 0 0 nan
nan 0 -0 0 -0 -0 -0 -0 -1 0 0 0 0 -0 0 0 0 1 1 0 -0 -0 0 1 -0 0 0 0 0 0 0 0 -0 0 0 0 0 0 0 -0 -0 -1 -0 -0 -0 -0 -0 0 nan
nan 0 -0 -0 0 0 1 0 -0 0 0 0 -0 0 1 1 1 1 0 -0 -1 -0 -0 -0 -0 0 0 0 0 0 0 0 0 0 0 0 0 0 0 0 -0 -0 -0 -1 -0 -0 -0 -0 nan
nan -0 -0 0 -0 0 0 -0 -0 1 1 1 0 1 2 2 1 1 0 0 -0 -0 -0 -0 0 -0 -0 -0 -0 0 0 0 0 0 0 -0 -0 -0 0 0 0 -0 -0 -0 -0 -0 -0 -0 nan
nan -0 0 0 0 0 0 -0 0 0 1 2 1 1 1 2 2 1 1 0 0 0 1 1 0 0 0 0 0 0 -0 0 -0 -0 0 -0 -0 -0 -0 0 0 0 -0 -0 -0 -0 -0 -0 nan
nan 0 1 -0 0 0 0 0 -0 -1 -1 -0 2 2 2 2 2 1 1 1 1 1 1 1 1 0 0 0 0 -0 -0 0 0 0 0 0 -0 0 -0 -0 0 0 0 -0 -0 -0 -0 -0 nan
nan -0 0 0 -0 0 0 -0 0 -1 -0 -0 0 3 3 2 2 2 1 1 1 2 1 1 1 0 0 0 0 0 0 0 0 0 -0 -0 -0 -0 -0 -0 -0 -0 -0 -0 -0 0 0 0 nan
nan -0 -0 0 0 0 0 0 1 -0 -0 -1 -1 0 2 3 2 3 3 2 2 1 1 1 1 0 0 0 0 0 0 0 0 -0 -0 0 0 -0 -0 -0 0 -0 0 0 0 0 0 0 nan
nan -1 -0 0 0 0 0 -0 0 -0 -0 -0 -0 -0 1 2 2 2 3 3 2 2 1 1 1 1 0 0 0 0 0 0 -0 0 0 0 0 0 0 0 0 0 0 0 0 0 0 -0 nan
nan -1 -0 0 0 -0 0 0 1 1 0 -0 -0 -0 0 1 2 2 2 2 3 2 2 1 1 1 1 1 0 -0 -0 -0 0 0 0 0 0 0 0 0 1 0 0 0 0 0 0 0 nan
nan -0 0 -0 -0 -0 0 1 -1 -1 -1 0 -0 -0 0 1 1 2 2 2 2 2 3 2 2 1 1 0 0 0 0 0 0 0 0 0 0 0 0 0 0 -0 0 0 0 0 0 0 nan
nan -1 -1 1 0 -0 1 2 -1 -0 -0 -0 -0 0 0 0 1 1 1 2 2 2 2 2 2 2 1 1 1 0 1 1 1 0 0 0 0 0 0 0 0 0 0 0 -0 -0 0 0 nan
nan -0 -0 -1 -1 0 -1 -1 0 -0 -0 -0 -0 -1 -0 1 1 0 1 1 1 1 2 2 2 2 1 1 1 1 1 1 0 0 0 0 0 1 1 0 0 0 -0 -0 0 -0 0 0 nan
nan -0 -0 -0 -0 0 -0 -0 0 -0 -0 -0 -1 -1 -0 0 1 0 0 1 1 1 1 1 1 1 1 1 1 1 1 1 1 1 0 0 1 1 0 0 0 0 0 0 0 -0 0 -0 nan
nan -0 -0 -0 -0 0 -0 -0 -0 0 -0 -0 -1 -0 -0 0 0 0 0 0 0 0 1 1 1 1 1 1 1 1 1 1 1 1 1 0 1 1 0 0 0 0 0 0 0 0 0 -0 nan
nan nan nan nan nan nan nan nan nan nan nan nan nan nan nan nan nan nan nan nan nan nan nan nan nan nan nan nan nan nan nan nan nan nan nan nan nan nan nan nan nan nan nan nan nan nan nan nan nan
Wind_Speed
12 11 14 13 2 2 5 7 1 2 3 8 5 5 7 3 5 3 12 32 35 36 32 28 26 24 22 20 18 17 16 16 16 15 14 13 16 22 20 17 19 20 17 14 17 20 19 18 17
12 13 14 4 3 4 7 5 8 6 4 6 5 3 3 3 6 6 25 34 36 36 33 30 27 24 21 19 18 17 19 20 20 17 14 14 15 25 22 19 18 19 20 17 16 16 18 17 17
13 17 8 4 4 11 6 6 10 7 8 4 4 4 4 3 9 16 21 38 39 37 35 31 27 23 20 19 19 20 22 23 21 18 13 20 16 21 21 19 17 18 20 17 17 17 16 17 18
13 9 2 3 11 5 5 2 5 4 10 8 5 3 4 7 12 21 36 39 41 38 35 31 27 23 21 20 20 21 22 22 20 17 18 19 14 18 18 12 14 23 20 21 22 21 18 19 21
17 4 2 3 7 4 5 3 7 4 4 10 12 3 2 8 13 23 40 42 41 38 35 31 27 24 23 21 22 22 21 19 16 14 23 21 16 15 16 22 27 27 24 24 23 23 21 23 21
7 3 2 13 6 4 5 13 4 4 6 4 9 9 4 10 17 31 36 43 40 36 34 31 28 25 24 22 21 21 20 18 16 17 23 22 19 19 17 17 25 25 23 22 22 20 18 21 20
6 4 5 3 7 5 5 14 8 6 4 7 6 9 7 15 21 33 36 41 39 36 34 31 29 26 25 23 22 22 20 18 15 16 20 21 21 21 17 18 24 25 22 22 19 16 17 17 18
7 3 5 5 5 6 8 11 10 22 11 4 13 7 8 24 27 31 36 37 36 35 34 32 30 28 27 24 23 22 21 18 16 15 20 20 20 21 17 20 25 25 21 19 18 17 16 17 16
13 3 5 9 9 5 5 6 11 7 16 13 17 6 12 31 32 35 36 37 35 35 34 33 31 29 29 26 23 21 21 18 17 16 19 20 19 18 16 18 23 24 23 19 16 14 15 17 15
8 8 12 6 6 5 7 9 8 7 13 9 18 14 14 35 39 41 43 42 40 39 37 34 33 31 30 28 25 23 23 20 17 16 18 18 17 17 19 20 22 21 20 17 16 15 15 14 14
8 14 8 5 11 5 4 5 6 8 5 15 25 22 28 38 41 44 44 44 44 41 39 37 35 33 32 30 28 25 24 21 18 15 15 16 17 17 16 24 20 21 18 18 17 18 16 13 12
6 17 9 10 10 5 4 4 4 12 9 18 26 32 35 40 43 44 45 44 42 42 40 37 36 34 32 31 29 26 24 23 19 15 13 13 16 17 15 19 19 16 20 20 18 17 13 12 11
13 3 24 16 12 16 8 6 6 9 17 11 19 34 39 44 43 43 43 43 40 42 40 39 37 35 33 31 30 26 24 23 20 16 13 11 14 15 15 18 17 18 19 18 14 17 14 13 11
5 22 18 14 28 11 5 4 7 7 14 13 19 32 39 41 43 40 43 45 41 42 41 39 38 36 33 32 30 26 24 24 21 17 14 13 12 13 14 17 15 18 16 20 14 15 12 12 10
17 3 10 23 5 7 14 12 9 15 3 10 25 31 36 36 42 44 44 46 45 43 41 39 37 35 33 31 28 26 24 24 22 19 17 14 13 12 13 15 16 17 16 19 16 15 11 9 10
13 7 13 2 18 7 18 23 14 22 19 9 21 31 34 35 39 40 42 43 43 43 41 37 36 33 31 30 27 26 24 24 23 21 19 17 13 12 11 13 15 17 15 18 19 15 13 10 8
9 15 22 10 9 5 17 2 8 12 23 16 20 28 31 33 32 33 36 40 42 41 40 37 34 32 30 27 26 24 23 23 23 23 21 20 16 13 11 12 14 16 15 18 20 15 12 13 9
16 22 6 16 5 9 11 4 1 20 19 18 21 25 29 35 35 34 36 37 38 37 34 34 33 30 28 25 24 24 23 23 24 24 22 21 19 16 12 11 11 16 17 17 18 15 12 13 10
9 9 16 5 9 6 18 11 3 4 8 14 17 22 25 31 32 32 34 35 37 37 34 34 33 32 32 31 30 28 27 26 23 25 23 21 21 18 17 13 13 13 17 18 18 17 13 14 13
14 12 11 4 6 10 5 10 2 6 5 2 13 22 26 25 25 29 31 33 36 38 36 35 34 33 33 32 31 29 27 25 24 23 24 22 22 21 18 16 13 13 14 17 17 15 14 14 14
8 12 9 6 2 0 7 2 7 4 9 10 12 17 20 22 24 25 28 30 33 38 38 38 35 33 31 29 29 28 28 26 24 24 24 24 21 20 18 17 15 14 14 15 16 15 15 13 14
14 8 12 12 8 10 10 6 9 5 6 9 11 13 15 18 19 23 25 28 30 32 34 35 36 34 32 28 27 25 30 27 25 22 20 21 22 23 22 20 19 18 16 16 13 15 18 16 14
6 10 10 11 11 5 8 4 4 7 5 6 9 11 14 16 18 19 21 23 25 28 30 32 33 31 30 26 25 24 23 24 21 20 19 19 21 20 22 22 22 23 25 19 18 17 18 18 18
12 8 9 6 6 9 10 14 5 5 1 6 9 12 13 15 18 19 19 20 22 23 26 28 30 30 32 30 27 26 25 25 24 23 23 21 20 18 18 20 22 22 20 21 21 21 23 21 21
13 4 5 6 8 7 14 12 4 6 8 10 13 14 13 15 18 19 19 20 20 21 22 28 28 27 28 29 30 28 28 28 25 27 28 27 23 22 21 21 21 22 22 23 23 25 23 25 24
6 4 4 14 7 13 16 7 4 7 14 17 17 16 16 16 16 17 17 18 17 18 19 23 24 25 27 29 28 31 29 29 30 29 30 30 30 29 28 29 28 27 27 26 25 23 25 26 24
6 3 2 4 5 7 5 3 5 9 10 15 15 17 17 16 15 15 15 15 15 15 16 19 20 21 23 23 23 24 26 27 28 30 31 30 30 29 28 28 29 30 29 27 27 26 26 24 23
6 5 0 1 5 4 4 4 4 8 8 9 12 15 14 14 14 14 14 13 12 12 14 14 16 16 17 19 20 21 22 23 24 24 25 27 27 27 26 26 25 25 27 28 29 30 28 26 27
7 5 4 2 2 1 5 2 6 6 10 11 13 14 14 14 15 14 13 11 10 9 10 11 12 13 14 15 16 17 18 19 20 21 22 22 24 25 26 25 25 23 22 25 27 30 30 30 30
4 9 2 2 4 3 2 2 7 12 14 14 14 14 14 14 15 14 12 11 9 9 8 8 9 10 11 12 13 14 14 15 16 16 17 18 20 21 23 25 25 23 22 22 24 27 32 35 33
Wind_Direction
181 174 165 154 140 68 222 238 220 195 221 211 174 173 193 159 172 204 151 167 168 163 163 163 163 159 157 156 158 159 158 150 138 132 140 143 129 127 122 119 137 133 126 136 132 121 121 111 98
171 167 163 154 138 185 226 218 207 203 215 193 196 186 159 206 194 154 152 164 169 163 162 164 164 160 157 156 156 153 146 136 140 142 144 143 129 134 129 130 130 148 130 137 135 131 124 116 105
177 168 169 154 182 217 220 212 221 227 186 141 184 207 184 193 192 170 166 161 169 165 164 165 165 163 161 160 158 153 149 149 151 151 160 119 124 139 139 135 138 131 148 130 130 128 125 120 117
178 177 107 179 224 248 200 237 206 206 224 222 198 207 200 173 182 166 163 165 169 166 165 167 167 165 163 161 158 153 154 154 157 163 134 122 122 117 125 125 124 122 125 114 115 111 115 123 122
175 161 191 237 245 244 234 257 169 187 204 199 182 207 212 180 175 165 164 168 170 165 166 167 167 165 163 157 155 154 157 161 163 159 136 137 129 122 112 110 113 114 112 112 113 108 108 122 121
158 156 179 225 229 232 244 212 184 207 210 206 190 155 157 160 169 163 165 171 171 164 164 165 166 164 161 154 151 149 146 142 142 140 143 144 138 129 120 116 121 115 113 112 113 119 115 129 123
171 147 215 226 245 251 221 206 201 205 194 223 194 152 158 157 164 163 165 172 172 168 166 165 166 164 160 154 148 146 144 134 133 142 147 148 141 133 129 126 128 123 122 124 124 120 118 133 126
206 161 188 213 198 261 198 189 209 209 223 210 186 185 175 173 167 166 166 170 170 169 169 168 168 165 163 158 153 150 149 139 129 137 151 152 152 144 136 134 139 127 129 129 127 123 128 122 135
196 197 213 207 173 220 186 185 199 202 210 192 191 212 200 168 167 167 165 172 172 173 174 174 171 168 167 162 159 156 156 144 132 130 148 154 151 152 159 130 145 141 135 133 135 134 122 114 109
198 213 211 199 184 208 183 181 184 177 185 202 192 204 184 167 170 171 170 174 176 176 178 178 176 172 170 167 166 163 163 153 140 130 138 151 153 153 151 137 152 150 147 138 130 132 125 117 106
214 231 213 224 203 190 176 192 205 168 217 198 190 176 175 170 175 175 178 177 178 179 179 180 179 178 176 172 172 171 168 161 152 140 135 145 155 158 154 152 146 155 157 149 132 133 131 119 105
241 222 219 234 224 189 202 185 216 204 210 214 210 197 174 175 179 178 176 177 178 181 182 181 182 181 180 178 177 177 172 170 163 154 142 146 155 157 155 153 154 151 161 148 141 142 131 124 116
236 244 218 227 223 230 240 237 219 238 233 244 205 190 179 179 181 183 184 178 178 181 181 183 182 184 184 183 181 182 177 177 171 163 148 143 152 154 154 153 154 148 159 163 152 136 129 125 118
182 221 244 234 232 233 194 253 204 235 242 238 203 183 180 179 184 182 183 182 182 183 182 184 184 185 185 187 187 186 183 180 179 171 157 142 145 151 154 158 153 148 156 171 167 147 131 121 116
237 285 246 236 213 221 214 273 217 217 208 215 193 188 184 182 185 186 187 186 185 186 185 184 185 187 187 189 190 189 186 183 183 178 168 153 145 145 153 160 159 160 164 174 171 166 152 131 118
214 236 237 197 203 207 175 245 228 229 236 224 196 189 185 185 186 188 190 190 188 186 186 183 188 187 189 191 193 193 189 186 186 183 177 166 154 148 148 157 167 167 173 173 175 172 169 146 128
219 223 221 246 195 155 194 198 217 219 216 212 194 192 181 181 183 185 190 190 189 190 187 187 189 189 189 191 199 197 193 192 190 187 184 175 173 165 154 153 163 167 174 176 179 178 177 177 156
211 226 213 215 204 179 206 233 275 197 195 191 188 189 182 179 179 183 186 189 185 188 187 188 187 185 185 187 193 196 192 194 193 191 188 183 180 178 174 165 163 168 168 172 175 178 170 175 178
219 223 229 194 200 164 213 207 241 172 196 176 171 165 171 179 177 182 184 185 189 186 184 185 182 185 185 188 191 194 192 188 192 193 192 189 187 187 189 178 175 176 179 182 182 179 179 182 184
235 184 211 228 193 186 208 212 111 41 61 50 177 160 171 168 170 176 182 184 187 185 186 185 185 187 190 194 196 195 192 194 195 194 192 192 191 197 197 195 190 182 185 188 196 196 195 194 197
261 239 171 173 65 144 129 214 190 80 70 50 74 140 157 164 165 167 176 176 182 188 185 186 187 190 195 199 201 203 197 192 194 198 198 197 196 199 204 208 204 201 202 207 206 210 216 210 205
266 217 242 174 151 202 194 219 212 146 102 58 51 79 110 142 151 156 161 168 173 177 183 186 189 191 196 201 203 210 202 196 196 197 198 200 201 200 201 209 211 215 215 219 222 223 223 216 219
299 322 224 214 188 134 201 195 165 138 156 114 68 76 96 117 128 132 144 152 161 167 176 183 185 189 196 198 198 198 193 194 201 204 214 217 216 217 210 210 215 218 218 222 225 225 225 227 227
277 300 227 220 190 215 186 198 190 179 171 132 93 79 85 105 117 123 129 137 147 161 168 179 186 185 192 201 204 205 203 202 207 205 214 226 221 217 216 218 218 221 226 230 236 233 235 235 232
15 251 184 225 206 200 169 196 96 23 39 125 114 93 80 96 102 114 121 126 134 149 162 171 183 189 193 195 199 210 211 212 213 215 218 221 220 225 228 228 228 228 228 233 236 242 246 232 233
309 305 308 205 203 187 163 188 99 83 79 83 83 86 88 84 92 98 104 115 123 136 150 159 171 180 190 199 203 207 212 215 218 220 224 229 233 233 232 233 231 232 237 237 235 241 244 244 230
333 351 297 283 252 174 116 49 84 98 80 81 78 73 66 75 83 87 97 110 114 121 134 149 159 169 179 188 198 205 211 217 220 223 225 228 231 233 230 230 232 232 233 234 235 237 239 245 240
38 349 278 244 217 207 18 73 105 138 108 87 72 65 60 67 75 80 85 93 105 113 126 141 152 161 173 188 196 205 212 217 220 222 226 228 227 227 226 226 227 230 233 235 235 236 236 240 237
355 19 332 270 232 135 137 50 310 145 101 89 76 68 62 59 62 68 75 82 92 101 117 131 145 155 168 181 192 200 208 215 220 222 226 228 227 226 227 228 228 229 232 234 238 236 237 240 244
132 353 279 312 4 359 50 80 349 91 96 89 81 76 64 60 55 58 64 71 79 87 103 118 132 144 159 173 184 195 203 208 216 217 218 221 225 227 227 228 229 229 234 242 244 242 239 236 240
Height
1507 1510 1513 1516 1524 1526 1523 1513 1510 1509 1508 1503 1504 1504 1503 1503 1506 1513 1505 1510 1516 1521 1527 1532 1537 1540 1544 1547 1549 1551 1554 1557 1558 1561 1562 1564 1566 1568 1569 1571 1572 1573 1575 1576 1577 1578 1579 1580 1581
1506 1510 1514 1513 1521 1524 1510 1507 1505 1501 1500 1501 1502 1503 1503 1502 1503 1503 1506 1511 1517 1521 1527 1532 1537 1541 1544 1547 1550 1552 1556 1558 1560 1562 1563 1565 1567 1569 1571 1572 1573 1574 1576 1577 1578 1579 1581 1583 1584
1506 1509 1511 1511 1519 1507 1503 1499 1497 1499 1500 1500 1502 1502 1502 1501 1502 1503 1505 1510 1517 1522 1527 1533 1537 1541 1544 1547 1550 1553 1556 1559 1561 1563 1565 1566 1568 1571 1571 1572 1573 1574 1577 1578 1580 1582 1583 1585 1587
1506 1510 1511 1511 1505 1503 1496 1491 1493 1497 1498 1498 1499 1501 1500 1499 1499 1502 1506 1511 1517 1522 1528 1533 1537 1541 1545 1548 1551 1554 1557 1560 1562 1564 1567 1569 1570 1572 1574 1574 1574 1576 1579 1581 1582 1584 1585 1587 1589
1504 1506 1509 1510 1503 1497 1495 1492 1493 1494 1494 1493 1496 1496 1498 1498 1499 1501 1506 1511 1517 1522 1528 1534 1538 1542 1546 1549 1552 1555 1558 1561 1563 1565 1568 1570 1572 1573 1576 1577 1578 1580 1582 1584 1585 1587 1588 1590 1592
1502 1503 1509 1497 1499 1496 1491 1490 1492 1492 1491 1492 1495 1494 1497 1497 1499 1502 1507 1513 1519 1523 1529 1535 1539 1543 1546 1550 1553 1556 1559 1562 1564 1566 1569 1571 1574 1576 1578 1580 1582 1583 1585 1587 1589 1590 1591 1593 1594
1496 1500 1499 1499 1493 1491 1487 1486 1489 1489 1489 1489 1490 1493 1497 1497 1500 1504 1508 1514 1520 1525 1530 1535 1540 1544 1548 1551 1554 1557 1560 1563 1565 1567 1569 1572 1576 1578 1579 1581 1584 1586 1588 1590 1592 1594 1595 1595 1597
1493 1495 1498 1494 1491 1485 1480 1482 1482 1486 1486 1486 1488 1490 1494 1494 1499 1505 1509 1515 1521 1526 1531 1535 1540 1544 1548 1551 1555 1558 1562 1564 1566 1568 1570 1573 1576 1579 1581 1582 1586 1588 1590 1592 1594 1596 1596 1598 1599
1490 1492 1489 1483 1487 1479 1477 1479 1479 1480 1483 1483 1485 1485 1487 1491 1497 1503 1508 1516 1521 1526 1531 1535 1539 1543 1547 1551 1555 1558 1562 1565 1567 1569 1571 1574 1577 1580 1582 1584 1587 1590 1592 1594 1596 1598 1598 1600 1602
1484 1480 1475 1472 1473 1472 1472 1475 1475 1478 1479 1480 1481 1483 1485 1489 1493 1497 1502 1510 1516 1522 1528 1533 1538 1542 1547 1551 1555 1558 1562 1565 1568 1570 1572 1575 1578 1581 1583 1586 1589 1591 1594 1596 1597 1599 1601 1603 1604
1474 1465 1469 1467 1468 1469 1470 1472 1472 1473 1477 1472 1474 1479 1484 1488 1492 1495 1500 1506 1510 1518 1526 1531 1536 1541 1546 1550 1554 1557 1561 1565 1569 1571 1573 1576 1578 1580 1583 1586 1588 1592 1595 1597 1599 1601 1604 1605 1606
1470 1465 1466 1466 1467 1468 1469 1469 1469 1469 1468 1469 1472 1475 1480 1485 1489 1493 1497 1504 1511 1516 1522 1529 1534 1540 1545 1549 1553 1557 1561 1565 1569 1572 1574 1576 1578 1581 1583 1586 1589 1592 1595 1598 1600 1603 1605 1607 1608
1466 1463 1463 1464 1465 1466 1468 1467 1467 1465 1466 1467 1469 1472 1475 1481 1486 1492 1497 1503 1509 1515 1521 1526 1532 1538 1543 1548 1552 1556 1561 1565 1569 1572 1575 1577 1579 1582 1584 1587 1589 1592 1595 1599 1601 1604 1606 1608 1609
1457 1460 1460 1459 1461 1464 1466 1466 1467 1462 1463 1464 1467 1470 1473 1478 1484 1489 1494 1500 1506 1513 1519 1524 1530 1535 1542 1547 1552 1556 1560 1565 1569 1573 1576 1578 1581 1583 1585 1587 1590 1592 1596 1599 1602 1605 1607 1609 1611
1458 1459 1458 1451 1457 1460 1464 1464 1460 1460 1460 1461 1464 1468 1472 1477 1482 1485 1490 1496 1503 1510 1516 1522 1528 1534 1540 1547 1551 1555 1559 1564 1568 1573 1576 1579 1581 1584 1586 1588 1591 1594 1596 1599 1602 1605 1608 1610 1612
1454 1458 1456 1442 1451 1457 1459 1445 1453 1457 1459 1460 1463 1467 1471 1476 1479 1485 1490 1496 1502 1508 1515 1521 1527 1533 1539 1545 1550 1554 1558 1563 1567 1572 1575 1579 1582 1584 1586 1589 1591 1594 1596 1599 1602 1605 1608 1611 1612
1447 1437 1439 1449 1443 1450 1451 1448 1446 1451 1455 1457 1462 1465 1470 1475 1480 1485 1490 1494 1500 1507 1513 1520 1526 1532 1537 1543 1549 1553 1558 1561 1566 1570 1574 1578 1582 1584 1587 1589 1591 1594 1596 1599 1602 1605 1608 1611 1613
1433 1435 1440 1442 1443 1446 1448 1449 1444 1445 1450 1453 1458 1463 1467 1470 1476 1481 1487 1493 1500 1507 1513 1518 1524 1530 1536 1541 1547 1552 1555 1559 1564 1568 1572 1577 1580 1584 1586 1589 1591 1594 1596 1599 1602 1605 1608 1610 1613
1431 1433 1433 1440 1439 1443 1441 1446 1443 1446 1449 1452 1455 1459 1464 1469 1473 1479 1485 1491 1498 1504 1511 1515 1521 1527 1532 1537 1542 1548 1552 1556 1561 1566 1571 1575 1579 1582 1585 1588 1591 1594 1596 1598 1602 1604 1607 1609 1612
1432 1427 1433 1439 1436 1439 1442 1442 1448 1450 1454 1455 1456 1459 1463 1468 1471 1476 1482 1488 1494 1501 1507 1513 1519 1524 1530 1535 1539 1544 1550 1555 1559 1564 1568 1572 1576 1580 1583 1587 1590 1593 1595 1598 1601 1603 1605 1608 1610
1433 1426 1431 1431 1437 1438 1440 1446 1444 1455 1457 1459 1458 1459 1462 1466 1470 1474 1480 1485 1492 1497 1503 1509 1516 1521 1527 1533 1538 1542 1547 1552 1556 1560 1564 1568 1573 1578 1581 1585 1588 1591 1594 1597 1599 1601 1604 1606 1608
1432 1427 1429 1426 1432 1433 1433 1435 1443 1451 1458 1463 1465 1464 1465 1467 1470 1473 1477 1483 1489 1494 1500 1506 1512 1518 1524 1529 1535 1539 1544 1548 1552 1557 1562 1566 1570 1575 1579 1582 1586 1589 1592 1595 1597 1600 1602 1605 1607
1433 1430 1428 1426 1427 1433 1432 1436 1439 1452 1458 1466 1470 1470 1469 1470 1471 1473 1477 1482 1486 1491 1497 1504 1509 1515 1522 1527 1532 1537 1541 1546 1551 1555 1560 1564 1567 1571 1575 1578 1582 1585 1588 1592 1594 1597 1599 1602 1604
1441 1434 1429 1426 1423 1420 1420 1417 1445 1451 1458 1469 1473 1474 1474 1474 1474 1475 1478 1482 1485 1490 1495 1502 1506 1512 1518 1523 1529 1534 1538 1544 1548 1552 1557 1560 1564 1567 1571 1575 1578 1582 1585 1588 1591 1594 1596 1599 1601
1451 1435 1434 1426 1410 1404 1414 1420 1459 1472 1468 1469 1473 1476 1477 1477 1477 1478 1480 1482 1486 1490 1495 1498 1504 1510 1515 1520 1525 1530 1535 1540 1545 1549 1554 1557 1561 1564 1567 1571 1575 1578 1581 1585 1587 1589 1592 1594 1597
1464 1456 1435 1403 1393 1397 1406 1412 1464 1478 1477 1476 1478 1479 1480 1480 1480 1481 1483 1484 1488 1491 1495 1495 1502 1506 1512 1516 1522 1527 1531 1536 1540 1545 1549 1552 1556 1560 1563 1567 1570 1573 1577 1580 1583 1585 1587 1589 1592
1471 1457 1472 1455 1425 1393 1439 1482 1481 1480 1482 1482 1484 1484 1485 1485 1485 1485 1486 1487 1490 1492 1493 1496 1500 1504 1509 1514 1517 1522 1527 1531 1535 1539 1542 1546 1550 1553 1556 1559 1563 1567 1571 1574 1577 1580 1582 1584 1587
1478 1482 1462 1452 1429 1395 1457 1471 1476 1481 1485 1488 1489 1490 1490 1489 1489 1488 1488 1490 1491 1494 1494 1497 1500 1503 1506 1510 1515 1519 1522 1526 1530 1533 1536 1540 1543 1547 1550 1553 1556 1560 1563 1567 1570 1573 1576 1579 1581
1492 1490 1489 1485 1475 1426 1449 1485 1489 1483 1488 1491 1494 1495 1495 1494 1493 1492 1492 1493 1493 1494 1495 1497 1499 1502 1505 1508 1512 1515 1518 1522 1525 1528 1531 1534 1538 1541 1545 1548 1551 1554 1557 1560 1563 1566 1569 1573 1576
1503 1503 1495 1481 1464 1471 1463 1500 1492 1489 1492 1495 1497 1499 1498 1498 1497 1496 1495 1495 1495 1495 1496 1497 1499 1501 1504 1506 1509 1512 1515 1517 1520 1523 1526 1529 1532 1535 1539 1542 1545 1548 1551 1554 1557 1559 1562 1566 1568